Theta_e
313 313 313 313 313 313 314 314 315 316 317 317 318 318 317 317 317 317 317 317 317 318 319 319 317 316 316 316 315 314 314 314 314 314 314 314 315 315 315 316 318 318 317 316 315 315 315 315 315 316 317 317 319 319 318 318 317 320 331 332 322 321 321 318 320 315 316 321 313 309 311 313 314 309 309 310 309 308 308 307 308 308 308 309 309 308 308 306
312 312 312 312 312 313 313 313 314 315 316 316 317 317 317 317 316 316 316 315 316 316 318 319 318 317 317 316 315 314 314 314 314 314 314 315 315 315 316 316 319 320 318 318 317 315 316 316 315 315 317 318 318 318 318 317 315 320 329 324 320 326 319 313 316 311 312 316 312 310 310 311 313 310 309 311 308 306 308 307 306 307 307 307 308 307 307 306
311 312 312 312 312 312 312 312 313 313 314 315 316 317 317 317 316 316 315 315 314 315 316 318 319 318 317 317 316 316 315 315 315 314 314 314 315 316 316 317 319 320 319 318 318 317 318 318 317 315 316 318 318 318 317 317 316 315 319 322 325 325 315 310 312 312 312 313 311 310 310 310 311 311 310 310 307 305 307 307 304 305 307 306 306 306 306 305
311 311 311 311 311 311 311 312 312 312 313 314 314 315 316 316 316 316 316 315 315 314 314 315 317 318 318 317 317 317 316 317 316 314 314 315 316 316 316 317 319 319 319 318 317 318 320 320 318 314 315 316 316 317 316 316 315 314 315 320 320 314 314 313 312 313 313 312 311 311 310 310 309 311 310 308 309 308 307 309 309 309 309 307 306 306 305 305
311 311 311 311 311 311 311 311 311 311 312 312 313 314 315 315 316 316 316 316 315 315 314 314 316 317 318 318 318 317 317 320 318 314 314 315 316 316 316 316 318 319 319 318 318 319 320 319 318 315 315 316 316 317 316 314 314 313 313 313 312 310 314 314 312 313 313 312 312 310 311 311 310 310 309 309 313 313 309 311 312 311 311 310 308 306 304 303
311 311 310 310 310 310 310 310 310 310 311 311 312 313 313 314 315 315 315 315 316 316 315 314 314 316 318 318 318 318 318 320 318 315 315 315 316 316 316 316 318 319 318 318 318 319 320 319 318 316 315 315 315 316 315 312 312 315 312 309 310 311 313 314 313 313 313 312 311 309 311 310 309 310 309 308 311 312 311 312 311 310 310 309 308 306 304 303
311 310 310 310 310 310 310 310 310 310 310 310 311 311 312 313 313 314 314 315 315 315 315 314 314 315 317 317 318 319 319 320 319 316 315 314 315 316 316 316 317 318 318 318 318 319 320 320 318 314 314 315 314 314 314 312 311 316 315 310 311 311 312 313 313 313 313 312 311 310 310 309 309 311 309 308 311 312 311 311 311 310 308 307 307 305 304 303
310 310 310 310 310 310 310 310 310 310 310 310 310 310 311 311 312 312 313 314 314 315 315 314 314 314 317 317 317 318 318 319 318 316 315 314 315 316 317 316 316 318 318 318 318 319 319 319 317 313 314 314 314 313 312 312 312 315 315 311 310 311 312 313 313 313 312 312 311 309 308 308 310 310 308 309 311 311 310 311 311 310 308 306 306 305 304 302
310 310 310 310 310 310 310 310 310 310 310 310 310 310 310 310 311 311 312 313 314 314 315 315 314 314 317 317 317 318 317 318 318 317 315 314 314 315 316 316 316 317 317 318 317 318 319 318 316 315 314 313 314 313 311 313 313 312 313 311 310 311 311 312 312 312 312 311 310 309 309 308 308 309 308 310 311 310 310 310 310 309 307 306 305 304 304 302
310 310 310 310 310 310 310 310 310 310 310 310 310 310 310 310 310 310 311 312 313 314 314 314 314 315 316 317 317 318 317 317 319 319 317 315 314 314 316 316 316 316 317 317 317 318 319 318 317 316 315 314 313 311 311 313 313 311 311 311 310 310 310 310 311 311 311 310 309 309 310 308 306 308 310 310 310 310 309 309 309 308 307 306 305 304 303 302
310 310 310 310 310 310 310 310 310 310 310 310 310 310 310 310 310 310 310 311 312 313 314 314 315 315 316 316 316 316 316 317 318 320 319 317 315 314 315 316 316 316 316 317 317 318 318 317 317 316 316 315 313 311 310 311 312 310 310 311 310 309 309 309 309 310 309 309 308 309 309 308 307 308 310 309 309 309 308 308 307 306 306 305 304 303 302 301
310 310 310 310 310 310 310 310 310 310 310 310 310 310 310 310 310 310 310 310 311 312 313 314 315 315 315 316 316 315 315 317 318 319 319 318 315 314 315 316 315 315 316 317 316 317 318 317 316 316 316 314 313 312 312 311 311 310 310 314 314 314 314 308 308 309 307 310 309 308 311 310 310 310 310 308 308 307 306 307 306 305 305 304 303 302 301 301
310 310 310 310 310 310 310 310 310 310 310 310 310 310 310 310 310 310 310 310 311 312 314 315 315 315 315 315 315 315 316 316 318 318 318 317 315 314 315 315 315 315 316 316 316 317 317 316 315 316 314 313 313 312 312 310 309 311 309 313 319 323 321 309 307 308 307 310 309 309 315 315 314 310 308 308 307 306 305 305 305 304 304 303 302 301 301 300
310 310 310 310 310 310 310 310 310 310 310 310 310 310 310 310 311 311 310 310 311 312 314 315 315 315 315 315 315 316 317 317 317 318 318 316 314 314 314 315 315 315 315 316 316 316 317 316 315 315 313 313 312 310 314 314 314 315 310 316 321 320 325 315 306 308 309 311 309 309 315 315 316 312 307 307 307 306 305 304 304 303 303 302 301 301 300 300
310 310 310 310 311 310 310 310 310 310 310 310 310 310 310 310 311 311 310 311 312 313 314 315 315 315 315 316 316 316 317 317 318 318 317 316 314 314 314 315 315 314 315 315 315 316 317 316 314 315 313 312 314 315 321 324 322 320 314 323 324 316 324 321 306 306 311 311 307 310 316 315 314 310 307 306 305 305 305 303 303 303 303 302 301 301 300 300
310 310 310 310 311 310 310 310 310 310 310 310 310 310 310 310 311 311 311 312 312 312 313 314 315 316 317 316 316 316 317 317 317 317 317 316 314 313 314 314 315 315 314 314 315 316 316 316 314 313 311 310 318 326 327 327 329 326 317 321 327 319 319 320 309 304 307 310 308 310 315 316 313 307 305 305 304 304 303 302 302 302 302 302 301 300 300 300
310 310 310 310 310 310 310 310 310 310 310 310 310 310 310 309 310 311 312 311 312 312 313 315 317 317 318 317 316 316 316 316 316 316 316 315 314 313 314 314 315 314 314 315 315 315 315 315 313 313 313 311 318 328 326 327 334 331 321 319 323 319 314 318 316 307 305 309 311 311 312 313 312 307 304 305 304 303 301 301 302 302 302 301 300 300 300 300
311 310 310 310 310 310 310 310 310 310 310 310 309 310 310 310 311 311 311 311 312 314 314 316 317 318 317 316 317 317 317 316 316 316 316 315 314 313 314 314 315 314 314 314 314 316 315 313 314 320 323 319 322 328 326 328 330 326 322 320 320 318 314 315 317 310 306 309 311 312 311 311 311 308 304 305 305 302 301 302 303 302 300 300 299 299 300 300
311 311 311 310 310 310 310 310 309 309 309 310 309 309 309 310 310 311 312 314 314 315 315 316 317 317 315 314 315 315 316 316 316 316 316 316 315 315 315 314 314 313 313 316 317 315 314 313 317 322 327 326 324 323 325 330 327 320 319 319 318 318 314 313 314 308 305 309 310 309 310 310 310 309 306 304 304 302 301 302 302 300 299 298 299 299 299 299
312 311 311 311 310 309 310 309 309 309 309 309 309 309 309 310 312 313 314 314 315 315 314 314 314 314 315 314 315 314 315 315 315 316 316 316 316 315 315 314 314 314 314 320 321 313 312 318 321 323 325 327 326 321 319 323 319 314 315 315 314 314 312 311 312 308 304 308 312 309 309 309 308 309 307 304 303 300 299 300 300 300 299 299 298 299 299 300
312 312 311 311 311 310 309 309 309 309 308 308 308 308 310 311 313 314 312 313 313 313 313 312 312 312 313 314 315 314 314 314 314 315 316 316 316 315 315 313 314 317 315 314 316 312 314 318 324 331 326 321 322 317 313 314 312 311 313 313 313 312 312 310 308 309 305 307 312 311 310 309 308 308 308 306 304 301 299 299 300 300 300 299 299 299 300 300
311 312 312 311 311 310 309 309 309 309 308 308 307 308 310 311 313 312 312 313 313 311 312 312 311 312 311 312 313 313 314 315 314 314 315 314 315 315 313 314 316 320 315 311 315 319 319 322 327 327 314 310 313 311 312 313 311 312 312 312 314 313 313 313 309 309 308 307 312 313 309 308 308 308 308 307 306 304 303 303 303 302 300 300 300 300 300 299
309 309 310 311 311 310 309 309 308 309 308 308 307 308 311 312 313 312 313 314 314 312 312 312 312 312 312 312 312 313 313 315 315 314 315 314 314 314 312 313 317 320 316 316 321 322 324 326 320 310 305 311 314 310 312 312 311 314 312 313 316 313 315 318 314 310 310 308 310 311 308 307 307 307 308 307 305 305 305 305 305 304 303 302 302 302 301 300
307 307 308 310 310 310 310 309 309 309 308 308 308 309 311 312 313 313 313 313 314 314 311 313 313 312 314 313 312 314 314 314 315 314 315 314 313 313 311 312 316 318 317 319 321 321 324 319 306 303 308 314 315 311 312 313 315 318 315 313 315 315 314 316 314 310 312 312 308 308 311 313 311 308 309 307 304 305 305 304 304 303 304 304 303 303 302 301
306 306 306 307 309 310 310 309 309 309 308 308 308 310 312 313 313 313 313 312 314 314 312 313 314 314 314 314 314 314 314 314 314 314 314 313 313 312 311 311 313 318 319 319 318 320 321 310 303 308 312 312 314 315 316 315 317 322 319 314 314 315 313 312 313 311 315 318 310 309 316 319 314 311 312 309 308 309 305 303 303 302 303 303 302 302 301 301
306 306 306 306 308 309 310 311 310 309 309 308 309 310 312 313 313 314 314 312 313 315 315 314 315 316 315 315 315 313 315 316 312 313 313 312 312 311 312 311 310 316 318 316 317 319 316 306 306 315 314 312 313 316 318 315 315 319 318 314 312 312 311 312 312 311 317 319 309 309 317 317 313 314 317 315 313 313 310 307 304 301 302 302 302 303 302 301
307 306 306 306 307 309 310 311 311 310 310 310 311 311 312 313 313 312 311 311 312 315 317 315 315 317 316 315 313 313 319 317 311 311 312 312 312 310 314 315 311 312 310 311 318 318 312 308 310 314 314 315 314 317 318 313 317 321 314 313 315 312 312 313 310 310 314 312 308 310 311 312 311 312 314 313 312 312 310 310 306 302 302 302 304 304 302 302
308 308 307 306 307 309 310 311 311 311 311 313 313 312 313 313 312 311 310 309 311 316 319 316 314 315 315 314 312 312 314 313 312 312 310 311 311 310 314 315 316 316 308 311 323 317 311 314 315 313 315 316 317 322 318 312 318 319 310 310 312 310 312 312 309 309 309 308 311 312 308 310 313 312 311 309 309 312 312 314 311 305 303 303 304 304 304 303
309 309 308 307 307 309 311 311 311 311 311 312 313 312 313 312 310 310 309 308 313 318 317 316 315 314 313 313 312 311 310 310 312 312 309 310 311 310 312 311 312 314 307 310 322 317 310 312 311 313 318 317 318 316 310 312 316 310 305 308 310 310 310 310 309 310 311 311 315 314 309 312 316 316 312 307 309 312 314 316 314 306 303 304 305 305 304 303
308 308 307 308 309 310 311 312 311 310 311 311 312 312 311 311 311 309 308 309 314 317 313 313 315 313 313 314 314 311 311 311 309 308 308 309 310 309 310 309 308 313 315 313 318 315 307 304 305 310 313 312 313 307 302 307 307 303 307 312 313 312 309 308 310 311 314 317 316 313 310 312 316 317 313 312 315 317 317 316 315 309 305 306 306 305 305 304
308 308 308 309 310 309 311 313 311 310 310 311 312 312 311 315 315 311 309 309 311 314 314 315 314 313 315 318 319 314 311 311 308 308 309 308 309 309 309 311 310 316 323 320 318 315 308 307 308 308 306 305 310 309 302 302 302 305 314 316 317 317 313 313 314 313 316 319 315 310 307 309 314 315 313 314 315 317 319 320 321 316 308 307 308 307 306 305
309 309 309 311 312 310 310 312 312 311 309 310 312 311 312 316 314 312 310 310 311 315 318 319 315 314 316 317 319 316 313 314 308 307 312 311 311 312 312 316 316 318 324 321 319 318 315 313 309 306 304 305 314 316 308 305 306 309 315 317 318 320 320 321 318 316 319 319 310 305 307 309 311 312 312 313 314 313 313 313 314 312 307 307 308 307 307 306
310 310 309 311 311 310 309 311 312 311 309 310 310 311 315 314 310 310 311 311 313 314 317 320 317 316 317 317 320 316 314 317 311 307 312 311 311 313 313 316 317 316 320 318 316 319 319 315 308 308 308 306 312 316 314 313 310 308 313 317 319 321 325 327 322 316 317 317 308 302 308 312 311 312 312 311 312 311 307 305 307 307 307 307 306 305 306 306
311 311 311 311 310 310 311 311 312 311 309 309 309 312 316 313 310 311 313 312 312 313 316 318 316 315 316 318 322 318 314 317 314 309 312 312 312 315 315 314 313 316 320 317 316 320 320 317 314 313 312 308 309 311 314 317 310 307 312 315 318 323 326 328 326 319 317 319 311 304 310 317 314 314 313 309 308 307 306 306 307 307 307 305 303 304 304 304
311 312 313 312 310 311 312 311 312 311 308 307 310 313 313 311 312 314 314 312 312 316 316 315 315 316 316 318 320 317 314 316 315 312 313 314 315 318 317 314 312 316 321 318 319 318 316 318 315 308 306 306 307 306 308 314 312 308 310 313 316 320 320 318 320 318 315 316 313 308 312 316 311 310 310 309 308 306 304 303 302 304 304 302 301 302 303 303
311 312 312 312 311 311 311 310 311 311 308 307 311 313 310 309 314 316 313 312 314 318 317 316 317 317 318 320 320 316 313 313 314 314 314 313 315 317 318 317 312 312 316 317 319 318 316 318 311 303 304 303 303 303 303 310 314 310 308 313 314 311 315 319 317 311 310 313 315 313 313 312 310 311 309 307 309 307 303 301 300 300 300 299 299 301 302 302
310 311 312 312 310 309 310 310 311 311 308 307 310 312 311 310 313 314 313 311 313 318 318 315 316 318 321 321 321 318 314 313 313 315 317 315 315 316 316 317 312 310 314 315 318 319 317 317 310 306 310 304 297 300 301 302 307 312 313 313 308 307 311 317 318 314 312 314 316 315 314 311 311 312 308 306 310 309 305 305 302 298 296 296 299 301 302 301
310 311 312 312 310 308 310 311 311 311 307 306 309 312 313 311 308 308 310 310 311 317 318 314 313 316 321 321 320 318 315 315 315 315 318 316 314 316 314 315 312 309 311 312 315 318 315 314 313 305 307 304 298 302 307 302 300 307 310 306 306 313 313 312 314 317 316 315 317 318 314 311 312 313 310 311 313 312 310 308 304 301 297 295 298 301 300 300
311 311 311 311 309 308 310 310 311 311 307 305 308 310 312 312 308 306 309 311 312 315 315 313 311 312 317 319 320 318 314 315 315 314 317 316 314 314 312 314 315 309 307 310 314 316 313 314 316 305 301 304 303 306 312 308 300 300 303 302 305 312 313 313 312 314 317 315 315 316 314 311 313 316 316 315 313 312 313 311 309 307 299 295 299 301 300 300
311 311 311 310 307 308 310 311 311 311 309 307 308 308 308 310 309 308 309 310 312 313 312 315 313 310 314 316 317 318 315 314 314 313 315 315 314 314 311 313 316 310 306 308 312 315 313 313 314 309 301 304 309 308 310 311 306 303 305 306 305 305 308 312 310 310 316 316 315 317 315 312 313 315 318 317 313 313 313 314 315 309 299 298 302 302 301 302
311 311 311 309 307 309 312 312 311 312 311 310 309 308 307 308 309 310 309 308 310 310 310 316 317 312 313 314 313 315 315 315 314 313 315 314 314 315 311 310 313 310 308 310 312 314 315 314 314 313 308 307 310 307 305 309 309 307 307 309 307 305 308 312 310 309 311 312 316 318 314 312 312 315 316 315 316 317 313 314 315 306 299 302 306 305 304 304
311 311 311 309 307 309 312 312 312 312 312 312 310 309 308 307 308 309 309 308 309 309 309 314 316 313 312 313 314 315 316 317 315 313 314 315 313 313 311 308 308 309 310 313 312 311 314 316 314 314 314 309 305 301 300 304 307 307 308 308 307 307 309 312 312 310 310 310 312 314 312 312 312 315 316 315 315 314 308 308 308 302 301 306 308 307 306 304
312 312 310 308 307 309 311 312 312 312 313 312 311 310 309 308 308 308 309 309 309 309 310 311 312 312 312 312 313 315 315 316 316 314 315 317 315 311 309 307 307 309 312 314 313 309 311 316 314 313 315 311 304 301 300 301 304 307 308 307 306 307 308 310 311 311 313 312 310 311 311 311 311 313 313 309 305 303 300 300 300 298 301 306 307 306 306 303
313 312 310 308 308 310 311 311 311 312 313 313 312 311 311 309 309 308 309 309 309 311 311 310 310 310 311 312 312 313 313 312 314 314 314 317 316 310 307 307 309 311 312 312 313 311 312 316 315 312 315 315 310 307 306 304 304 307 309 307 306 306 307 309 308 308 312 311 309 311 311 311 310 309 306 304 303 304 302 298 297 297 300 303 305 305 303 300
313 313 311 309 309 310 311 310 309 310 312 312 312 312 311 311 310 309 309 307 308 310 310 310 310 309 311 313 312 311 312 311 311 313 313 315 314 306 305 308 309 310 310 310 309 310 313 317 315 312 313 312 311 311 312 310 305 305 308 307 305 306 306 308 308 308 310 310 309 310 311 311 311 309 306 305 306 307 303 298 296 296 298 301 302 302 300 298
313 313 311 309 309 310 311 310 309 309 310 311 312 311 311 311 311 310 309 308 307 307 308 310 310 309 311 313 311 311 312 311 311 312 314 317 315 307 303 305 307 307 307 308 307 310 317 318 313 312 312 311 310 310 310 310 309 308 309 308 306 306 306 307 308 308 309 309 309 310 310 310 311 310 309 308 308 307 305 302 299 297 297 300 301 300 299 298
313 314 312 309 309 309 309 310 310 309 309 310 310 311 311 311 310 310 310 310 309 307 308 309 310 310 312 311 310 311 310 310 311 310 311 315 316 309 301 301 303 304 305 306 307 311 317 315 311 312 312 310 311 311 310 311 313 311 310 309 307 306 305 306 308 308 308 309 310 310 310 310 310 309 309 309 309 308 308 308 304 300 300 302 301 298 297 295
313 313 313 311 311 310 309 310 310 310 309 309 309 311 311 310 310 310 310 309 309 307 308 310 310 310 311 311 310 310 310 310 311 310 310 312 313 310 306 304 302 302 304 305 305 309 314 313 311 312 311 310 311 311 311 312 311 309 309 309 308 306 306 306 306 307 308 309 310 310 310 310 310 309 309 309 309 309 309 309 307 303 302 302 299 296 295 294
313 313 313 312 312 312 310 309 310 310 310 309 309 309 309 310 310 309 310 310 309 308 308 310 310 309 309 310 310 310 310 310 310 311 311 310 310 310 311 310 304 300 303 306 305 306 310 311 311 311 310 311 310 310 310 309 308 308 309 309 308 306 306 306 306 306 307 307 308 309 309 310 309 309 310 309 309 309 308 308 307 304 303 301 298 296 296 295
314 312 312 312 312 312 311 310 310 311 311 310 310 309 308 309 309 309 310 310 310 309 308 309 309 309 309 310 309 309 310 309 310 311 311 311 311 311 311 313 310 303 301 305 307 305 307 311 314 312 311 312 311 310 311 310 309 309 309 309 309 308 307 306 306 306 306 306 306 307 308 308 308 308 309 308 308 308 307 307 306 305 304 301 298 297 297 295
315 313 312 312 312 312 312 311 311 311 311 311 310 310 309 309 309 309 308 308 309 310 309 309 309 309 309 310 309 309 309 310 310 309 310 311 311 311 311 312 312 309 303 304 307 306 307 311 314 313 312 312 311 312 312 310 309 309 310 310 310 309 309 308 308 307 307 306 306 307 307 308 307 308 308 308 307 307 308 307 305 305 305 302 299 298 297 296
315 314 313 313 312 312 312 312 312 311 311 311 310 310 310 310 310 309 309 308 307 308 308 309 309 309 309 309 309 309 308 308 309 308 308 309 308 309 310 308 309 310 308 305 305 307 307 309 311 311 311 311 312 313 312 310 310 310 311 310 310 310 310 309 310 309 308 307 308 309 309 309 308 308 308 308 308 308 308 307 305 305 305 302 300 300 299 299
Wind_Speed
7 8 8 9 9 9 9 10 10 11 12 12 13 14 15 15 15 15 15 14 13 13 12 10 6 3 1 2 3 4 4 4 4 3 3 6 7 8 9 10 11 12 11 10 10 9 7 7 6 5 6 1 3 4 5 6 6 2 2 4 1 3 3 5 8 7 4 4 6 12 14 8 6 10 10 7 8 11 15 16 12 15 17 13 12 13 23 28
7 7 7 8 8 8 8 9 9 10 10 11 12 12 13 14 14 14 14 14 13 12 11 10 8 4 2 1 1 2 2 2 2 2 3 5 5 6 7 8 10 11 11 10 10 10 8 9 8 4 3 0 2 4 5 5 6 4 3 3 2 4 3 3 7 8 3 3 9 11 13 10 8 13 15 7 6 10 10 10 10 11 13 13 15 19 25 27
7 7 7 7 7 7 7 8 8 8 9 10 10 11 12 13 13 13 13 14 14 12 10 9 8 6 4 3 2 1 1 2 2 1 2 3 4 5 6 6 8 9 10 10 10 11 11 12 11 4 1 2 4 4 5 7 5 2 4 3 4 6 4 3 5 10 4 3 10 9 9 9 8 14 16 8 6 7 9 12 12 14 19 19 21 25 27 26
8 8 8 8 8 7 7 7 7 7 8 8 9 10 10 12 12 12 13 13 13 13 12 9 7 6 5 3 4 4 4 5 4 4 2 1 3 4 4 5 6 8 9 10 10 11 12 13 10 4 2 3 5 4 4 8 4 0 4 3 5 4 2 3 5 8 5 3 10 7 5 6 8 14 15 11 7 4 14 24 22 20 24 26 26 29 28 27
10 9 9 9 9 8 8 8 8 7 7 8 9 10 10 11 12 12 12 12 13 13 13 11 8 6 6 4 4 5 3 3 3 6 3 1 1 3 3 3 4 7 8 10 10 11 12 13 9 3 3 3 5 4 3 7 5 1 2 2 4 5 1 3 5 6 6 5 7 7 5 6 9 12 16 16 9 7 16 26 28 24 23 26 28 30 29 29
11 11 10 10 10 10 10 9 9 8 8 8 8 9 10 10 11 12 12 12 12 13 13 12 9 7 6 5 5 5 3 1 3 6 5 3 0 1 2 1 3 5 7 8 8 10 12 14 9 4 3 3 4 3 3 6 3 1 1 1 4 6 1 3 7 5 6 7 7 8 7 8 11 8 15 21 18 16 13 15 22 24 22 25 28 30 31 30
11 11 11 11 11 11 11 11 11 10 10 9 9 10 10 10 11 12 12 12 12 12 13 12 11 9 7 6 5 5 7 6 5 6 7 5 2 1 1 0 1 4 6 6 6 9 12 14 11 6 4 3 1 1 4 6 3 3 1 1 4 5 3 5 9 8 8 10 9 8 7 10 12 7 9 21 28 25 18 12 15 21 24 26 29 31 30 30
12 12 12 12 12 12 12 12 12 11 11 10 10 10 11 11 11 13 12 11 12 12 13 13 12 10 8 7 5 7 9 8 6 7 8 7 5 3 2 2 1 2 5 5 4 8 12 13 11 6 3 2 1 1 4 5 3 4 1 2 2 4 4 7 10 10 11 13 11 8 8 9 14 10 7 19 27 26 25 18 14 20 26 29 31 30 30 30
12 12 12 12 13 12 12 12 12 12 12 11 11 11 12 12 12 13 12 11 12 12 12 13 12 10 8 7 6 6 7 5 5 8 9 9 7 4 4 3 2 2 4 5 3 7 10 10 9 6 2 3 2 2 3 3 1 1 1 2 3 4 4 6 11 12 13 13 10 9 7 6 10 8 10 21 24 23 24 19 16 22 28 31 32 31 30 31
13 13 13 13 13 13 13 12 12 12 12 12 12 11 12 13 13 14 14 12 12 12 12 12 11 9 8 8 5 3 5 5 5 9 9 9 9 7 5 4 3 3 3 5 2 4 8 7 7 6 3 3 2 1 2 2 1 2 3 4 5 6 6 6 11 13 12 11 11 9 5 4 6 4 8 16 18 21 22 18 20 25 29 33 32 31 30 30
16 15 14 14 14 14 13 13 13 13 13 12 12 12 12 13 14 15 15 14 13 13 12 12 10 8 8 8 6 5 7 7 5 8 10 10 10 9 7 5 4 4 3 5 2 2 6 5 5 5 1 0 2 1 1 2 2 3 4 5 6 5 4 4 7 9 7 7 11 8 4 2 4 4 10 12 15 20 22 21 24 28 31 33 32 31 30 30
18 17 16 16 15 15 14 14 14 13 13 13 13 12 12 13 14 15 15 15 15 13 12 10 8 8 9 10 11 10 10 9 8 8 9 10 10 10 8 6 4 4 4 5 2 2 5 3 3 4 1 1 1 1 2 3 3 1 3 3 6 7 5 1 2 6 7 4 7 4 4 4 6 10 12 10 15 20 21 24 26 30 32 32 32 31 31 31
19 19 18 17 17 17 16 16 15 15 14 14 14 13 13 14 14 15 15 15 15 13 11 9 8 9 10 11 12 11 9 9 9 9 9 10 10 10 8 6 5 4 4 5 4 3 4 3 1 3 3 2 1 1 1 4 3 1 2 2 4 8 5 1 2 5 7 4 6 4 4 7 8 15 13 10 17 21 22 26 29 32 33 33 33 33 33 32
20 20 19 18 18 18 18 18 17 17 16 15 15 14 14 15 15 15 15 15 14 12 11 9 9 10 9 10 12 11 10 9 10 10 10 10 10 10 9 7 6 5 5 5 4 4 4 2 1 3 4 3 2 1 2 5 4 1 1 3 2 3 4 4 0 5 5 4 8 6 3 8 8 11 12 14 19 23 25 29 31 33 34 35 35 35 35 34
20 20 20 20 19 19 19 19 19 19 18 17 16 15 15 16 16 16 15 14 12 11 11 10 10 10 10 12 12 11 9 9 11 11 11 11 11 11 9 8 7 6 6 6 5 4 4 2 2 3 3 2 2 2 3 5 4 3 2 3 3 0 5 8 3 6 4 2 7 7 3 10 9 8 11 17 21 24 27 29 32 35 36 37 37 37 37 36
21 20 21 20 20 20 20 20 20 20 19 18 18 17 16 17 17 16 14 12 12 12 11 10 10 8 8 10 10 9 9 10 10 11 12 12 11 12 10 9 9 8 8 6 6 5 3 2 1 3 2 2 3 4 4 4 4 4 1 3 4 2 4 6 4 2 3 2 4 5 3 7 7 4 8 17 23 26 25 26 32 35 37 39 39 39 39 37
21 21 21 21 21 21 21 20 21 21 20 20 20 18 17 18 18 14 12 13 14 13 10 10 9 8 9 10 9 9 9 10 11 11 12 12 12 12 11 10 9 9 8 7 6 5 3 1 2 1 3 3 3 4 4 4 4 4 2 1 4 3 3 4 5 2 2 3 4 4 4 11 12 4 8 16 23 26 25 26 32 36 38 38 39 40 40 39
23 22 22 21 21 21 21 21 21 22 21 21 21 20 19 18 15 12 14 15 13 9 8 9 5 3 8 10 8 8 7 8 11 12 12 13 13 12 12 10 9 8 6 5 5 4 2 1 1 0 3 4 3 5 2 3 3 4 3 2 4 3 4 5 6 3 2 1 4 4 6 14 18 11 11 17 22 27 30 31 34 35 36 37 38 40 41 42
25 24 23 23 22 22 22 22 22 22 22 21 20 21 19 16 12 11 12 11 8 5 4 6 5 3 5 7 8 9 8 8 10 12 14 13 13 12 11 10 9 7 3 1 3 3 1 1 2 0 2 3 2 6 6 7 7 6 5 4 4 5 6 6 6 4 1 2 7 8 9 12 17 16 12 17 24 29 31 31 30 29 31 34 37 40 42 44
27 26 25 24 23 22 22 22 22 21 22 22 21 19 14 10 7 7 7 8 9 11 12 14 15 16 15 13 11 11 11 10 11 12 13 13 12 11 10 9 7 4 2 3 3 1 2 1 3 5 7 7 7 7 6 5 6 5 4 4 5 6 7 6 4 4 1 1 9 9 9 12 16 17 14 14 21 24 24 25 27 27 30 35 38 41 44 47
29 28 27 26 24 23 23 23 22 21 21 21 20 16 9 5 4 5 9 11 13 16 20 22 21 22 22 18 15 12 11 11 11 13 13 13 12 8 7 6 3 2 2 3 2 1 3 3 7 9 9 7 5 6 6 5 5 3 3 4 5 5 8 8 3 4 1 3 7 6 7 12 15 15 17 12 13 18 23 25 28 29 31 35 38 43 46 45
31 30 28 28 25 23 23 23 22 20 20 19 16 12 8 6 6 7 9 11 16 19 19 22 23 25 25 23 21 17 12 10 11 15 15 14 13 9 6 4 4 3 1 3 3 3 2 6 10 8 6 6 5 5 7 5 4 2 2 1 4 4 5 8 4 4 2 3 5 7 7 13 15 14 18 18 14 19 27 30 33 32 32 36 40 44 45 42
30 30 29 29 27 24 23 23 22 20 18 16 14 11 8 8 7 9 8 7 15 18 17 19 22 25 24 22 22 19 15 11 10 13 15 14 14 11 8 6 4 2 1 4 5 2 2 7 7 5 8 8 5 4 7 5 2 3 3 2 5 3 1 5 4 5 3 3 4 8 10 12 13 12 17 22 19 22 29 30 33 33 34 39 42 43 44 44
28 28 29 29 27 24 23 23 21 19 18 15 13 11 9 8 7 9 9 5 8 11 12 16 17 17 18 16 16 15 14 12 8 9 13 16 13 9 7 6 4 2 3 6 7 6 7 6 3 6 6 7 5 3 5 4 2 3 5 6 6 5 5 6 4 5 4 3 3 6 11 9 6 8 12 11 9 15 20 21 26 32 35 38 38 40 43 45
24 26 27 26 25 23 22 22 20 19 17 14 12 10 8 7 6 9 7 3 5 7 8 10 10 11 12 11 10 10 9 10 10 9 12 17 15 7 4 5 4 4 4 5 6 5 8 4 6 6 2 4 6 4 5 7 3 4 5 10 10 8 7 4 4 5 4 4 4 5 7 7 1 4 9 6 4 8 10 11 19 27 31 33 36 39 41 42
23 24 23 23 21 21 20 18 17 17 15 13 12 9 6 5 4 7 5 2 3 5 3 5 5 6 8 8 8 8 2 5 10 11 12 16 17 9 3 4 2 3 5 6 4 3 3 1 4 5 5 5 5 5 5 7 4 3 4 7 7 4 2 2 2 3 1 3 3 3 2 9 2 2 8 8 7 9 9 9 15 21 25 30 37 40 39 40
22 22 21 20 18 17 16 14 15 14 10 10 10 8 5 2 1 5 5 3 4 4 4 5 6 7 8 9 12 10 1 3 7 10 14 15 15 12 6 3 2 2 5 5 1 3 2 3 3 5 5 5 5 5 6 8 7 3 4 5 6 5 4 4 2 1 3 2 4 2 4 8 8 5 9 9 8 10 13 15 14 17 24 30 37 39 39 41
20 20 18 18 16 14 14 14 14 12 10 9 6 7 5 2 1 2 3 3 5 3 4 4 6 7 8 11 15 9 1 5 6 8 15 14 14 11 6 7 6 4 4 6 4 4 3 5 5 6 4 3 6 5 8 11 5 5 4 6 6 6 5 4 4 3 2 3 5 4 5 5 9 6 3 3 5 9 14 17 13 14 22 29 34 37 38 41
19 19 18 16 14 12 14 15 14 12 12 9 6 6 4 3 2 3 3 4 3 2 3 4 6 6 7 9 11 7 2 3 2 7 13 11 12 8 2 6 7 5 2 3 5 5 2 4 6 8 5 5 5 2 6 9 4 4 6 6 5 5 4 4 3 2 2 2 9 7 7 5 8 4 2 2 3 9 12 13 11 11 17 24 28 32 35 37
18 18 16 15 13 11 13 14 15 13 11 10 9 7 5 4 3 2 4 5 3 1 4 5 5 6 8 6 4 6 4 3 2 8 8 6 8 5 3 4 4 5 0 4 3 4 1 2 1 4 5 5 5 3 2 4 4 6 7 5 5 5 4 3 2 3 3 5 10 7 12 8 6 3 6 4 5 9 9 8 8 9 14 20 23 26 29 33
17 16 14 13 13 13 12 13 14 14 12 11 9 8 7 4 3 4 7 4 2 1 3 3 3 5 8 6 3 4 2 2 4 8 5 3 4 3 4 4 2 3 3 5 4 4 3 1 2 3 4 6 7 5 3 4 4 5 4 4 4 4 3 4 4 4 0 7 6 3 7 8 8 7 5 6 7 8 9 7 7 8 13 19 20 21 23 27
16 14 12 10 14 15 13 13 13 14 14 12 11 11 7 2 2 5 4 1 1 4 4 3 2 4 6 3 2 4 3 2 4 6 5 3 4 4 4 5 4 2 3 5 3 5 3 5 3 1 3 6 6 4 3 4 3 5 4 4 3 3 3 4 3 1 3 7 3 0 2 5 11 11 8 9 11 9 9 10 10 10 14 21 21 19 20 24
15 14 12 12 15 15 13 15 14 13 15 15 14 10 6 3 7 5 5 3 3 3 2 3 2 3 6 3 3 4 2 3 5 4 3 3 3 5 5 4 5 2 3 4 1 3 4 4 1 2 3 8 10 5 3 2 2 6 5 4 4 2 0 3 4 2 5 6 3 2 2 3 9 9 12 17 17 15 15 16 16 17 21 24 22 18 19 23
14 15 17 16 16 14 12 14 15 14 16 18 13 7 4 7 6 5 8 8 2 1 2 3 3 3 4 3 4 4 3 4 5 5 3 3 2 5 6 6 5 2 2 2 1 3 4 7 4 5 2 8 11 5 4 5 4 5 4 5 5 5 4 5 4 4 7 6 4 2 1 4 5 4 7 12 13 17 20 21 20 23 26 24 21 19 20 24
14 17 19 19 17 16 14 14 16 15 17 19 10 4 8 10 3 4 8 6 2 0 1 2 5 4 3 3 3 4 5 4 3 5 4 4 4 5 5 7 8 5 5 3 2 3 4 8 5 0 1 7 7 2 5 6 3 2 3 4 3 4 5 3 3 4 1 5 5 3 3 7 4 5 6 5 6 11 15 16 17 24 26 20 19 22 23 26
16 18 21 22 21 20 17 14 16 17 18 17 7 6 12 8 4 5 5 5 5 5 4 2 3 4 4 3 3 4 3 2 2 3 4 4 4 5 4 5 9 11 9 6 3 2 2 6 3 3 2 2 2 1 2 2 3 2 3 4 4 4 5 2 3 1 4 2 6 2 5 9 5 7 8 5 7 10 8 8 14 20 20 16 20 26 26 28
18 21 24 27 25 18 17 15 16 19 17 11 7 10 8 4 6 7 4 5 4 6 7 3 3 6 6 4 4 6 4 2 3 3 4 3 3 7 6 4 8 16 17 11 4 3 4 4 3 3 1 1 0 0 1 1 4 5 3 5 3 2 4 3 1 3 3 3 6 3 9 13 9 7 2 5 6 10 8 9 12 15 14 15 24 29 28 29
20 23 28 32 26 18 18 17 17 21 14 7 11 14 4 3 7 6 5 6 3 5 6 7 6 6 7 6 4 6 7 4 5 4 4 4 5 6 8 5 9 17 22 15 5 3 3 3 4 2 2 2 2 1 0 1 2 5 3 3 2 3 2 2 2 2 2 3 6 8 10 13 10 9 5 4 9 9 9 10 11 11 12 18 26 30 27 27
20 20 25 30 25 20 21 18 19 22 12 6 13 13 4 4 6 6 10 8 3 4 6 7 6 3 5 7 4 5 8 8 8 6 4 5 5 5 9 8 8 12 17 15 7 2 3 2 4 1 2 1 2 2 5 3 1 2 1 3 1 2 4 3 3 3 3 3 6 7 9 14 10 7 7 9 10 10 9 9 10 12 16 22 28 29 27 28
20 15 16 20 17 21 24 20 21 18 9 8 12 7 2 2 6 13 20 14 3 3 5 4 4 3 3 5 3 3 6 6 7 6 4 5 4 4 8 9 5 5 5 6 4 1 3 3 4 1 2 1 3 6 9 10 7 5 3 3 2 1 2 1 1 2 4 4 4 3 7 17 10 5 8 9 8 11 10 9 10 12 18 25 28 29 29 30
22 12 11 12 13 23 29 21 16 11 5 7 9 4 2 3 6 12 20 19 10 5 4 4 5 5 4 5 3 3 4 3 5 5 4 5 5 4 10 13 9 9 5 4 1 4 3 3 5 4 2 5 5 3 3 6 7 8 8 8 8 6 4 1 5 2 3 4 5 4 6 18 11 5 6 7 7 9 10 11 12 11 18 25 26 27 29 31
24 12 10 13 17 30 32 17 10 10 6 9 9 5 6 6 5 7 13 17 12 6 3 3 6 7 4 4 3 4 5 4 5 6 5 6 8 7 9 15 17 17 11 4 2 3 4 2 4 6 6 5 4 2 0 2 2 3 5 5 6 7 7 6 8 5 2 2 1 4 3 18 13 5 5 6 7 8 12 13 10 11 18 22 22 25 28 31
29 18 11 15 24 37 29 8 8 8 5 11 13 9 8 6 3 6 9 12 10 6 5 5 6 7 6 4 4 5 6 6 6 7 4 4 9 10 10 18 21 15 8 2 1 2 3 2 4 6 5 3 3 3 2 2 2 2 6 4 6 8 8 8 6 3 3 3 3 4 3 18 14 3 4 3 3 6 11 12 10 12 18 21 22 24 28 30
31 23 18 19 27 36 25 7 8 9 7 10 12 12 12 8 6 8 8 9 10 7 7 9 6 6 7 5 6 7 7 7 7 7 7 6 7 9 14 24 22 11 7 6 7 9 6 2 3 3 6 5 4 3 2 2 1 4 5 5 8 11 8 2 1 2 4 7 8 5 9 19 12 2 5 1 0 4 9 12 14 15 18 20 23 25 27 29
22 16 19 27 36 40 29 14 8 7 11 13 12 12 11 8 12 18 14 13 12 6 4 7 5 6 7 4 5 8 8 8 8 5 7 8 4 2 13 27 26 15 11 9 11 15 9 3 6 7 9 10 10 7 4 3 3 2 4 6 11 15 12 6 3 4 8 8 10 9 17 18 16 9 1 2 4 7 9 11 15 18 20 22 23 25 27 29
15 8 9 20 35 40 35 27 14 4 8 13 9 9 13 12 11 15 17 15 13 8 2 3 4 6 6 6 6 10 11 11 9 6 6 7 3 2 8 21 24 16 7 6 14 15 4 2 9 13 14 14 15 10 4 6 5 5 9 12 14 15 15 11 7 7 10 7 7 16 23 19 24 25 13 7 10 11 12 13 13 17 22 24 26 27 28 29
13 8 8 11 17 23 26 27 19 7 5 9 7 6 14 16 10 7 12 13 14 14 7 4 6 7 7 11 11 11 12 11 10 12 12 7 3 3 1 7 12 10 3 3 13 11 2 5 14 17 18 18 18 13 6 8 7 10 11 15 17 15 15 13 13 16 15 8 9 22 25 19 26 31 23 18 19 18 18 16 13 17 23 26 28 27 26 28
16 14 19 20 11 7 15 22 21 15 10 10 9 6 9 13 12 10 10 8 11 17 12 6 11 17 17 16 12 9 10 9 11 16 16 10 5 1 1 1 4 7 3 1 6 6 2 9 15 15 18 19 20 15 8 8 9 9 11 16 17 14 15 17 22 25 18 11 16 25 25 22 26 28 24 21 19 17 20 22 18 17 22 24 24 24 26 29
20 13 17 25 17 11 20 27 23 18 17 15 10 9 12 16 18 13 6 3 5 13 15 13 17 23 23 17 12 10 11 12 15 16 14 11 8 4 3 4 2 4 5 3 3 2 3 8 14 14 14 17 20 17 8 9 11 11 13 20 18 13 16 22 28 24 17 18 25 27 25 25 28 26 22 24 25 22 25 29 25 21 22 22 23 25 28 31
29 22 19 22 19 17 22 23 17 13 15 16 12 13 16 20 22 14 7 9 10 8 14 21 22 16 13 14 14 15 18 19 19 16 9 7 7 4 4 7 3 2 3 4 1 2 5 7 8 8 9 15 20 16 9 11 13 13 18 26 22 13 17 25 26 16 13 20 27 25 23 25 27 24 21 26 29 25 24 27 28 28 28 24 25 28 29 31
42 38 31 19 11 14 18 14 11 10 10 12 14 15 17 20 25 18 8 12 17 9 10 20 22 11 7 13 18 22 28 26 21 18 10 7 8 9 7 7 7 5 3 4 2 2 5 4 2 1 6 14 15 9 8 9 7 11 21 30 26 20 20 23 19 13 15 20 22 20 19 22 23 20 18 21 22 19 18 21 24 29 30 26 27 30 31 32
45 37 33 24 10 12 15 10 10 11 8 12 18 19 19 20 22 15 7 11 21 24 20 18 16 11 6 11 22 31 35 30 26 29 25 14 11 12 11 10 11 10 7 5 4 4 5 5 4 4 8 13 9 2 7 5 2 10 20 24 25 24 22 19 17 18 20 19 16 16 20 22 19 16 17 21 20 16 17 20 22 25 27 28 30 33 34 34
Wind_Direction
13 15 15 16 18 18 18 17 15 14 13 14 12 10 9 11 13 15 17 21 25 26 21 15 10 360 25 72 85 93 99 88 80 79 69 60 55 53 47 44 39 33 29 23 21 16 14 8 347 326 319 306 57 48 65 40 29 35 100 75 56 173 195 184 179 194 166 187 197 185 184 164 167 178 168 160 165 163 167 188 203 205 221 237 222 201 185 183
359 4 6 8 10 12 13 13 11 8 7 7 8 7 4 5 6 9 11 12 14 18 20 14 5 348 303 305 100 100 105 98 102 94 71 60 51 54 49 47 40 35 30 25 26 18 15 5 354 335 310 188 60 47 71 33 38 71 110 61 269 203 207 201 186 194 168 180 185 189 196 191 193 178 168 165 168 162 166 194 206 205 209 209 196 183 183 185
345 351 354 357 360 3 5 4 5 2 360 358 358 359 357 356 357 2 5 5 6 6 11 13 4 349 317 281 247 230 225 253 235 201 88 61 45 55 53 52 42 35 29 26 28 20 14 5 3 3 353 101 58 62 69 26 37 91 91 72 247 219 221 248 204 192 201 188 174 188 203 204 209 182 177 177 168 182 199 195 190 196 192 185 184 181 183 187
334 340 343 347 349 353 356 357 358 355 354 350 347 349 347 346 346 350 355 357 358 358 359 4 4 353 331 292 261 251 260 282 245 210 184 78 45 51 52 55 41 33 28 25 24 17 16 9 6 9 56 81 41 70 66 20 27 93 101 141 232 199 195 248 209 199 221 196 178 190 195 215 208 185 185 166 147 233 230 212 208 212 200 188 184 183 186 189
326 331 336 340 342 345 348 348 349 348 347 343 339 337 336 337 335 337 344 347 349 351 351 352 357 353 337 311 281 257 274 330 208 195 203 222 53 46 46 51 38 31 25 25 18 12 15 12 14 38 59 56 24 59 46 16 40 42 109 197 213 157 169 245 202 206 220 195 182 181 184 215 191 187 196 179 175 232 231 225 223 224 214 202 194 188 188 190
320 324 330 335 338 340 343 345 346 345 343 339 333 328 327 327 326 327 332 337 339 342 345 346 347 348 344 318 295 267 255 314 220 214 219 225 230 40 44 40 39 30 21 23 12 9 13 12 26 56 61 49 13 61 28 6 38 27 341 275 172 163 219 229 199 214 218 201 193 188 204 202 176 206 216 202 218 230 232 240 229 224 215 209 201 192 191 191
313 319 325 330 334 337 339 342 343 343 342 339 333 326 322 321 321 319 323 330 331 334 338 340 340 339 339 323 298 270 258 261 256 231 219 221 233 260 6 298 27 28 22 18 359 9 11 12 32 62 83 68 8 74 14 4 68 100 17 338 160 187 234 206 203 219 224 223 221 203 202 198 189 218 225 217 232 235 237 251 238 222 207 203 200 195 195 194
307 313 318 324 329 333 336 337 339 341 341 340 338 330 323 321 318 314 317 323 323 327 330 333 337 332 331 324 296 278 269 264 250 226 220 223 227 241 271 269 272 5 15 9 357 12 12 14 30 46 88 96 110 50 5 8 61 88 119 250 180 209 216 197 209 221 229 233 234 218 204 209 210 216 228 234 240 236 237 249 242 216 201 200 201 199 197 196
299 305 312 318 322 327 330 332 333 334 337 339 339 336 327 322 318 314 314 318 319 321 323 328 331 326 323 314 298 288 280 273 246 232 228 228 228 235 253 261 261 297 355 360 1 10 12 21 23 22 101 132 113 50 22 26 360 80 183 247 244 233 222 213 219 221 229 233 228 218 222 231 214 222 255 246 242 235 234 241 229 208 201 201 201 201 199 198
293 298 305 311 316 321 323 325 326 328 332 335 338 339 331 324 320 313 312 315 313 314 319 323 325 320 315 306 292 279 293 299 257 239 234 234 234 236 245 254 260 267 334 349 350 8 13 25 23 31 104 123 88 51 52 72 304 309 288 268 258 258 259 235 224 223 226 228 222 215 238 253 187 192 258 239 229 227 225 222 214 205 202 202 201 201 200 202
294 297 301 305 309 312 315 319 321 323 327 330 335 337 331 325 320 314 313 313 309 312 315 318 320 311 308 298 257 250 292 300 274 252 242 241 239 238 245 249 258 259 302 336 322 352 9 26 35 42 94 8 12 54 93 57 318 313 316 285 283 303 289 230 219 221 213 226 228 218 255 262 154 196 250 235 218 218 216 209 205 202 202 202 200 200 201 203
294 297 300 302 305 307 310 313 316 320 324 327 330 333 330 324 319 315 314 310 306 308 311 315 314 306 307 289 265 271 290 286 276 264 248 246 240 236 243 247 256 257 282 320 297 319 1 15 39 41 102 252 338 70 65 8 345 329 28 321 303 353 6 238 209 200 188 224 226 206 289 253 192 229 246 234 214 208 207 205 201 200 201 201 200 201 202 204
291 294 297 300 302 305 306 309 312 316 319 323 326 328 328 321 317 316 313 307 303 302 307 307 303 307 301 281 279 288 286 276 268 259 251 248 240 236 242 245 257 255 267 302 283 288 347 351 45 70 110 115 92 120 329 345 6 299 50 45 323 359 2 230 93 161 174 212 195 138 299 253 220 235 237 221 208 198 196 201 201 200 201 201 201 202 204 205
286 289 293 296 299 302 304 307 309 312 316 320 322 324 324 318 316 316 310 302 297 297 301 298 299 306 289 274 288 288 274 269 259 253 252 247 239 237 243 246 257 265 268 291 278 267 324 338 97 95 100 92 119 153 339 356 27 334 348 44 21 1 297 277 183 158 165 214 189 145 279 260 249 246 231 218 211 199 196 200 201 202 202 203 203 204 206 207
279 283 288 291 294 297 301 304 306 309 313 316 317 320 321 316 314 316 308 297 291 293 294 289 292 298 283 276 283 279 268 258 250 251 248 243 239 236 242 246 254 269 271 278 266 252 310 312 165 92 95 106 97 87 2 354 10 20 346 315 342 14 273 300 296 185 191 211 177 155 250 269 270 260 229 212 208 204 202 203 204 205 205 205 206 207 209 210
273 277 281 285 289 292 296 300 303 305 309 314 315 317 319 314 312 313 302 291 287 287 286 282 286 286 278 278 277 269 260 248 243 245 242 239 239 236 241 249 258 271 270 275 262 239 285 317 132 68 89 132 96 81 38 5 344 6 45 263 280 280 292 316 327 212 202 154 177 192 237 276 275 254 214 203 204 207 206 208 208 209 210 209 209 209 210 211
269 272 276 280 284 287 292 295 298 301 305 309 311 313 316 313 311 306 293 289 287 280 274 273 279 276 266 268 268 265 259 249 242 239 236 235 237 239 244 250 260 269 266 269 255 229 259 285 157 56 63 74 78 84 38 353 313 325 11 272 255 249 274 300 313 339 102 155 219 230 232 259 265 242 193 204 209 209 211 215 216 215 214 212 212 212 212 212
267 269 272 275 279 283 287 291 294 297 301 306 309 312 316 315 310 300 291 289 281 269 267 261 259 276 266 254 248 259 262 250 241 236 233 233 236 241 247 255 262 264 266 262 239 216 249 283 134 360 21 14 38 90 93 252 224 245 255 264 279 267 246 253 272 314 60 224 237 226 239 257 268 266 222 217 217 213 217 223 223 221 217 215 214 214 215 215
264 266 269 271 274 278 282 286 290 294 298 302 306 311 315 315 307 297 292 282 254 235 256 244 220 226 266 263 252 258 265 256 244 237 234 234 238 244 249 255 258 251 238 215 224 199 215 4 83 49 295 275 225 151 185 210 185 195 204 202 243 267 261 235 238 264 33 294 259 234 237 254 269 274 247 220 218 220 224 228 229 225 219 217 217 217 217 218
263 264 265 267 269 273 277 282 286 291 296 300 306 314 320 323 315 304 297 277 245 244 262 265 259 257 262 274 272 263 263 260 247 236 232 231 235 244 248 247 246 237 196 169 208 148 91 231 220 220 228 229 222 189 175 173 151 149 157 196 235 246 269 255 230 282 32 234 265 245 236 254 261 270 269 232 216 223 227 230 231 225 220 220 219 221 221 221
264 263 264 265 266 269 272 277 282 287 292 298 308 318 328 331 317 303 306 293 267 259 267 271 268 261 258 261 264 263 261 259 249 236 233 233 229 232 234 224 197 213 236 149 156 47 76 218 232 226 221 210 196 163 132 125 119 112 175 234 266 234 259 269 255 312 340 181 266 268 249 257 255 263 275 246 207 223 225 224 232 225 221 224 222 224 225 224
264 264 264 264 263 265 268 272 277 281 288 295 303 312 317 310 298 300 309 296 282 276 271 268 265 261 257 253 254 257 254 256 255 241 235 230 221 217 209 178 152 197 257 105 122 5 5 244 242 222 183 112 91 117 114 116 122 113 151 204 278 245 271 291 313 354 354 181 268 290 272 262 257 258 267 254 227 237 236 230 236 230 222 225 225 227 227 224
265 263 262 262 262 262 264 267 271 276 282 287 294 299 302 301 301 308 309 288 288 288 272 263 261 259 257 252 252 250 243 244 253 243 230 217 209 206 193 159 149 180 157 156 171 172 246 254 246 187 141 110 80 96 106 97 126 158 157 182 258 264 296 286 308 342 302 228 270 288 280 264 255 250 259 259 247 249 250 243 243 237 230 232 233 233 229 225
269 265 262 261 261 260 260 263 266 271 275 278 284 284 286 294 300 314 314 281 282 287 267 256 254 255 255 250 246 238 231 233 242 234 216 203 193 193 196 169 143 187 225 189 173 195 237 246 165 122 126 132 130 141 138 148 253 247 202 204 240 255 235 234 291 328 311 303 318 307 292 271 243 238 253 269 263 258 255 246 243 239 236 239 239 237 234 229
275 270 266 263 261 259 258 261 263 266 269 270 273 271 273 285 302 324 326 300 277 282 266 250 246 249 242 235 230 214 216 231 233 227 207 196 188 176 183 171 165 213 214 159 151 231 258 227 144 129 106 133 152 194 192 174 214 293 231 211 226 241 245 259 330 349 350 322 334 9 317 284 199 222 258 282 294 273 259 234 238 238 235 235 237 237 235 232
278 276 274 268 263 259 256 257 259 260 262 260 256 254 262 273 307 331 340 22 287 266 233 209 216 218 211 209 190 169 196 248 223 214 200 195 193 180 158 161 167 211 175 138 148 237 261 128 122 142 147 145 168 231 230 170 147 294 250 201 208 208 210 265 350 359 295 262 297 54 298 272 266 189 254 262 261 273 271 249 244 242 235 232 235 237 234 231
279 279 278 273 266 259 250 246 249 250 247 248 243 236 250 253 330 351 4 354 274 225 164 173 183 185 194 188 165 154 199 212 178 195 193 192 196 189 194 192 130 204 176 134 205 241 150 101 72 108 124 140 181 239 224 156 135 241 230 131 129 133 158 189 126 245 243 277 299 174 181 273 278 236 244 252 259 276 275 268 260 246 238 236 238 239 235 233
281 279 277 273 265 253 244 240 242 240 233 237 229 216 218 183 183 40 54 283 266 149 139 171 167 179 188 181 178 174 165 153 146 192 188 185 193 187 213 216 175 189 183 145 214 258 135 160 183 145 125 180 202 228 191 159 156 238 195 117 111 123 147 150 131 225 279 11 293 219 156 275 273 244 265 288 256 261 263 262 261 246 239 240 242 241 238 236
283 280 278 273 265 246 238 236 233 232 231 225 213 208 192 166 180 60 98 245 264 111 149 170 160 181 168 162 192 209 185 167 162 182 177 179 192 185 213 211 167 152 182 163 218 259 106 173 194 152 154 215 210 230 179 168 188 186 139 99 72 77 81 86 120 182 42 346 267 229 165 239 272 224 159 66 222 238 250 256 261 256 246 245 245 244 240 237
286 281 276 273 267 245 233 231 225 226 224 213 211 204 179 160 138 118 221 239 255 129 132 158 173 171 146 137 216 231 204 225 163 152 164 174 188 179 136 156 119 119 11 340 265 260 29 91 198 172 188 186 139 89 102 128 139 132 109 70 40 41 53 47 69 82 47 273 268 234 179 197 277 240 176 185 205 207 219 243 263 267 259 254 251 248 242 238
290 282 274 272 268 248 234 230 222 218 212 203 200 180 162 146 107 183 223 237 271 213 127 168 192 145 153 156 203 207 185 241 177 157 165 164 167 151 121 136 96 85 356 323 284 303 348 133 239 227 187 136 101 77 59 68 106 115 85 62 24 343 19 18 355 49 24 254 275 273 187 190 245 249 203 226 243 211 199 222 243 251 261 262 259 254 247 242
291 284 271 261 263 257 240 227 216 209 204 194 187 172 149 166 227 203 216 332 258 210 164 180 203 165 176 175 184 183 164 216 191 167 168 157 168 186 186 186 165 97 311 253 261 332 299 227 233 206 186 162 121 78 29 8 57 101 91 85 57 327 351 345 310 91 229 249 265 267 179 214 245 246 229 238 252 236 212 218 230 245 264 268 266 259 251 244
283 278 266 249 257 263 245 224 209 200 196 185 181 163 117 227 230 183 184 219 222 208 146 133 146 149 149 148 223 192 156 212 191 171 170 140 171 229 246 220 173 172 251 211 261 333 290 288 176 155 238 190 165 157 209 249 144 149 146 132 144 142 69 274 272 279 270 270 267 184 163 256 270 260 227 225 232 229 225 232 243 257 265 268 269 264 255 247
268 270 267 261 261 260 247 224 204 193 187 178 172 139 132 234 227 154 193 218 239 19 66 94 96 111 147 185 234 189 176 230 176 153 175 136 162 234 240 225 197 151 114 147 184 187 246 286 210 177 217 179 180 193 165 141 142 174 153 135 159 156 168 223 231 244 273 292 276 225 183 234 264 285 224 221 234 235 237 244 253 260 262 265 268 261 251 246
259 258 257 261 259 242 239 228 202 190 182 175 164 148 206 225 197 157 205 208 226 331 35 43 94 113 229 259 272 220 207 234 153 133 179 178 186 211 202 202 194 159 128 166 230 165 219 267 248 173 67 156 178 205 114 112 133 194 122 118 186 186 169 209 212 195 251 322 283 221 220 231 240 288 258 235 253 242 240 249 253 256 259 260 259 252 246 243
252 249 251 259 257 235 229 227 202 191 183 171 164 214 220 223 168 183 201 168 182 161 111 23 92 133 249 266 261 241 205 216 151 143 205 211 222 218 200 206 190 179 175 176 197 169 198 272 296 32 17 139 160 205 115 137 181 160 144 177 214 186 133 137 264 35 65 302 273 237 253 273 301 288 256 207 228 241 242 250 248 252 256 253 249 248 244 241
243 244 251 256 257 236 218 220 204 193 186 169 199 224 220 219 185 184 179 153 161 135 134 206 200 176 217 234 221 205 170 189 176 167 207 217 238 207 195 238 196 188 198 193 200 214 186 264 298 90 213 259 52 349 20 43 141 133 185 212 195 133 96 106 239 345 35 250 273 280 267 279 288 284 294 121 201 242 241 241 246 252 252 242 245 247 243 240
241 245 252 253 255 234 211 216 202 189 178 165 228 236 217 195 205 181 157 158 135 121 155 213 213 182 197 211 216 185 169 188 179 176 200 210 244 191 161 207 203 195 205 198 203 250 162 240 292 97 202 268 28 51 240 342 122 135 200 229 126 144 166 116 153 231 246 233 270 282 283 278 256 250 269 185 200 228 234 237 246 250 240 235 242 246 241 237
237 242 253 255 250 221 205 208 193 183 176 181 227 237 214 197 229 203 186 184 154 158 189 224 223 202 191 188 183 174 182 192 177 179 202 198 233 197 163 192 205 200 203 189 188 240 128 198 265 261 241 278 49 184 191 196 98 91 285 311 10 166 178 165 153 180 185 199 264 291 301 281 250 210 237 227 199 203 216 228 239 239 233 231 238 242 237 233
221 232 258 256 233 199 192 192 184 180 188 215 221 228 185 197 233 220 212 208 186 183 211 233 225 237 220 194 196 188 197 208 184 189 224 200 219 235 194 193 170 163 185 163 174 206 106 191 231 256 324 238 191 209 197 188 176 167 200 227 235 177 112 195 219 142 141 179 239 271 282 276 266 165 209 221 187 194 202 212 232 236 232 234 238 241 238 236
205 226 250 232 196 183 181 179 186 191 207 234 235 239 232 226 224 221 222 222 223 222 205 187 201 216 206 200 221 180 177 214 195 199 245 217 221 249 207 192 159 132 120 84 183 206 152 186 208 193 227 220 213 232 209 194 178 177 195 196 194 175 120 205 246 211 161 185 205 181 254 273 272 140 188 208 177 191 200 212 233 230 227 235 241 242 240 240
197 224 231 197 181 180 177 177 205 208 211 225 228 231 220 221 221 212 218 221 224 233 232 210 206 208 199 191 196 168 171 205 205 207 243 228 220 232 204 182 159 145 145 142 204 193 116 118 218 229 229 224 245 307 215 203 160 184 217 195 179 171 153 192 226 220 189 203 190 114 260 271 268 123 142 196 188 211 215 216 230 225 226 238 243 242 241 240
202 213 202 185 185 181 177 194 227 205 228 231 229 239 228 218 219 205 206 213 213 204 220 230 199 203 221 192 171 188 193 207 208 199 221 245 231 232 200 167 157 150 147 144 156 127 94 121 225 254 281 327 342 348 41 51 73 227 240 184 170 200 196 203 216 177 158 207 177 102 244 261 268 82 113 193 180 233 234 223 225 229 233 241 243 241 241 239
211 211 192 183 184 181 180 206 216 206 233 229 229 242 237 235 232 216 201 202 203 190 210 227 200 202 224 180 179 208 195 205 226 202 208 238 238 226 189 168 164 169 186 191 176 166 169 180 183 241 292 303 308 325 348 324 203 220 239 190 197 219 207 180 75 124 231 217 163 144 242 252 263 60 91 63 306 256 252 233 227 234 238 241 243 243 241 236
212 210 193 185 185 188 197 213 204 204 220 221 232 237 238 255 243 230 225 215 211 199 209 233 210 196 210 178 201 225 201 211 236 214 212 231 248 220 182 178 180 190 209 208 170 162 175 190 175 203 236 240 246 250 231 218 188 214 245 208 212 216 201 201 214 189 233 217 154 195 243 254 267 263 141 36 269 252 256 244 235 239 243 244 245 244 239 233
198 196 187 184 188 196 210 221 219 215 211 213 229 231 226 242 250 236 227 223 224 220 231 260 204 187 204 196 215 235 225 224 231 225 227 225 235 294 188 190 195 198 215 204 163 157 160 211 199 215 226 228 241 245 176 127 146 200 224 217 217 215 204 214 229 210 223 215 181 228 244 258 270 266 260 265 262 260 264 261 251 244 245 248 248 246 240 234
190 199 188 173 192 207 218 223 221 222 201 187 191 216 219 227 247 239 215 213 212 206 219 261 209 196 210 204 212 232 228 225 228 236 242 230 229 303 238 205 216 217 241 185 170 160 116 231 219 228 232 235 249 246 172 141 190 208 213 223 224 215 203 210 228 227 220 213 230 243 246 252 262 264 267 268 267 270 269 268 264 253 250 252 249 244 237 231
198 214 206 191 184 197 212 216 211 208 207 194 195 218 221 224 232 222 207 207 198 193 201 237 218 215 217 206 207 228 226 227 235 236 239 232 215 250 290 243 230 214 199 185 192 169 160 233 232 233 238 244 253 247 184 168 228 226 215 230 228 209 200 212 229 232 221 216 240 247 248 252 257 261 265 265 263 266 271 278 281 267 258 254 245 237 232 229
205 217 214 204 202 197 205 211 208 204 210 210 212 227 230 233 233 221 181 155 211 200 200 220 224 220 221 214 210 222 221 223 232 232 231 228 212 181 210 247 234 187 179 184 226 183 171 237 241 239 247 251 251 247 201 188 241 251 243 246 236 202 200 221 233 233 223 229 242 250 255 258 259 260 263 266 268 271 277 283 283 272 262 254 241 234 233 230
211 212 208 205 211 214 212 212 205 202 211 211 215 225 229 237 239 231 177 178 213 209 200 223 234 222 211 216 218 228 230 227 234 238 219 203 211 185 199 229 218 134 188 199 232 216 203 236 246 240 254 255 252 250 212 202 234 248 254 257 249 219 214 232 239 234 226 238 246 253 261 261 260 262 264 269 273 276 277 277 274 270 265 254 241 238 235 231
220 219 214 209 215 213 213 213 200 202 213 207 214 223 225 233 236 234 218 207 219 219 195 218 236 230 195 212 220 231 235 231 238 248 228 187 204 208 207 210 175 144 194 201 175 193 203 231 271 197 242 254 256 247 201 201 230 247 253 256 250 237 231 237 242 228 220 237 248 254 257 256 260 267 270 270 270 267 266 265 265 266 263 251 240 240 238 234
226 229 222 221 225 201 204 216 202 203 213 204 210 219 221 229 233 231 237 229 225 227 219 212 225 228 204 213 223 231 237 240 247 253 251 248 242 233 231 217 183 174 183 181 186 192 181 207 225 194 232 255 262 185 151 149 201 248 248 247 244 244 242 242 248 238 225 228 238 245 248 250 261 273 271 270 269 261 259 260 260 261 259 252 245 242 241 240